CZ-6A DEB, 54885

Orbit data source: Space-Track

CZ-6A DEB, 54885 is space debris in SSO originally from a launch on Fri, 11 Nov 2022 UTC launched from the Taiyaun Space Center, China (TSC). Debris objects in space refer to the collection of defunct objects orbiting the Earth. Examples of debris include non-operational satellites, rocket bodies, and fragments generated from explosions, collisions, or faulty payload assembly.

Loading next visibility...
Identifier
54885, 2022-151PW
Orbit
SSO
Country
Flag of CNCN / PRC
Related business
Manufacturer
SAST
Mission
Spacecraft
Bus & Motor
Unknown
Mass
Unknown
Launch date (UTC)
2022-11-11 (4 years ago)
Launch vehicle
Unknown
Launch site
Taiyaun Space Center, China (TSC)
Object type
Payload
Rocket body
Debris
Shape & HBR
Unknown shape, 0.1 m
Radar Cross Section
Medium (>0.1 m² and <1 m²)

Expand to show TLE details & history
Last TLE update: 3 days ago

TLE from 3 days ago
0 CZ-6A DEB
1 54885U 22151PW  26170.97852105  .00001273  00000-0  66449-3 0  9999
2 54885  98.8200 172.4596 0047948 332.6717  27.1936 14.15678577182857
Epoch: 2026-06-19T23:29Z
TLE epoch observation values (Epoch: 2026-06-19T23:29:04.218Z)
Latitude
0.00003°
Longitude
-88.00772°
Altitude
812.154 km
Speed
7.463 km/s
True Right ascension
11h 29m 50s
True Declination
0° 00' 00"
Sunlit
Object was in daylight at epoch
Visualization orbit readout
Latitude
Unknown
Longitude
Unknown
Altitude
Unknown
Speed
Unknown
Apparent Right ascension
Unknown
Apparent Declination
Unknown
Sunlit
N/A
Visualization observer readout
Local Sidereal Time
23:18:48
Azimuth
Unknown
Elevation
Unknown
Doppler factor
Unknown
Orbital elements
Apogee altitude
871.77 km
Perigee altitude
802.578 km
Semi-major axis
7,215.311 km
Eccentricity
0.00479
Inclination
98.82°
RAAN
172.4596°
Arg. of periapsis
332.6717°
True anomaly
27.44604°
Mean anomaly
27.1936°
Eccentric anomaly
27.31968°
Mean motion
3.54128 °/min
Orbital period
101.66 mins
BSTAR
0.00066449
Loading maneuver chart data...
Computing Atmospheric mass density...
Loading historical data...
Loading historical data...
Loading historical data...
Loading historical data...
Loading historical data...
Loading historical data...
Loading historical data...

Documentation

Showing up to 5 results
|